Station Historical Data
Daily Summary for September 27, 2017 Units:  English    Metric   Both
« Previous Day
Next Day »
Daily Weekly Monthly Yearly Custom
  High: Low: Average:
Temperature: 81.3 °F 63.5 °F 70.2 °F
Dew Point: 44.2 °F 33.5 °F 38.8 °F
Humidity: 42 % 22 % 32 %
Wind Speed: 12.0 mph 0.0 mph 2.4 mph
Wind Gust: 30.0 mph - -
Wind:- - SSE
Pressure: 29.96 in 29.86 in -
Precipitation: 0.00 in    
Historical Graphs
 
 
Tabular Data for September 27, 2017
Time Temperature Dew Point Pressure Wind Wind Speed Wind Gust Humidity Rainfall Rate (Hourly) solar
00:00 66.2 °F 33.9 °F 29.87 in ESE 7.0 mph 11.0 mph 30 % 0.00 in 0.00 W/m2
00:05 66.4 °F 34.0 °F 29.87 in East 6.0 mph 23.0 mph 30 % 0.00 in 0.00 W/m2
00:10 66.6 °F 34.2 °F 29.87 in East 1.0 mph 18.0 mph 30 % 0.00 in 0.00 W/m2
00:15 66.8 °F 33.5 °F 29.87 in Calm   26.0 mph 29 % 0.00 in 0.00 W/m2
00:20 67.0 °F 33.7 °F 29.87 in East 2.0 mph 16.0 mph 29 % 0.00 in 0.00 W/m2
00:25 67.1 °F 33.8 °F 29.87 in ENE 1.0 mph 15.0 mph 29 % 0.00 in 0.00 W/m2
00:30 67.2 °F 33.9 °F 29.87 in East 9.0 mph 26.0 mph 29 % 0.00 in 0.00 W/m2
00:35 67.2 °F 33.9 °F 29.87 in SE 7.0 mph 16.0 mph 29 % 0.00 in 0.00 W/m2
00:40 67.3 °F 34.0 °F 29.87 in ESE 9.0 mph 11.0 mph 29 % 0.00 in 0.00 W/m2
00:45 67.4 °F 34.1 °F 29.87 in ESE 5.0 mph 18.0 mph 29 % 0.00 in 0.00 W/m2
00:50 67.5 °F 34.2 °F 29.87 in ESE 6.0 mph 20.0 mph 29 % 0.00 in 0.00 W/m2
00:55 67.5 °F 34.2 °F 29.86 in Calm   16.0 mph 29 % 0.00 in 0.00 W/m2
01:00 67.5 °F 34.2 °F 29.86 in Calm   29.0 mph 29 % 0.00 in 0.00 W/m2
01:05 67.5 °F 34.2 °F 29.86 in ESE 1.0 mph 22.0 mph 29 % 0.00 in 0.00 W/m2
01:10 67.5 °F 34.2 °F 29.86 in ESE 1.0 mph 14.0 mph 29 % 0.00 in 0.00 W/m2
01:15 67.6 °F 34.2 °F 29.86 in East 6.0 mph 21.0 mph 29 % 0.00 in 0.00 W/m2
01:20 67.6 °F 34.2 °F 29.86 in Calm   20.0 mph 29 % 0.00 in 0.00 W/m2
01:25 67.6 °F 34.2 °F 29.86 in SE 1.0 mph 30.0 mph 29 % 0.00 in 0.00 W/m2
01:30 67.7 °F 34.3 °F 29.86 in East 5.0 mph 28.0 mph 29 % 0.00 in 0.00 W/m2
01:35 67.7 °F 34.3 °F 29.86 in East 4.0 mph 18.0 mph 29 % 0.00 in 0.00 W/m2
01:40 67.7 °F 34.3 °F 29.86 in ESE 2.0 mph 14.0 mph 29 % 0.00 in 0.00 W/m2
01:45 67.6 °F 34.2 °F 29.86 in ENE 3.0 mph 18.0 mph 29 % 0.00 in 0.00 W/m2
01:50 67.5 °F 35.0 °F 29.87 in ESE 2.0 mph 14.0 mph 30 % 0.00 in 0.00 W/m2
01:55 67.4 °F 34.9 °F 29.87 in ESE 5.0 mph 17.0 mph 30 % 0.00 in 0.00 W/m2
02:00 67.3 °F 34.8 °F 29.86 in Calm   13.0 mph 30 % 0.00 in 0.00 W/m2
02:05 67.1 °F 34.7 °F 29.86 in Calm   12.0 mph 30 % 0.00 in 0.00 W/m2
02:10 67.0 °F 34.6 °F 29.86 in ESE 2.0 mph 15.0 mph 30 % 0.00 in 0.00 W/m2
02:15 66.8 °F 35.2 °F 29.87 in ESE 2.0 mph 18.0 mph 31 % 0.00 in 0.00 W/m2
02:20 66.7 °F 35.1 °F 29.87 in East 7.0 mph 16.0 mph 31 % 0.00 in 0.00 W/m2
02:25 66.5 °F 35.0 °F 29.87 in ESE 5.0 mph 15.0 mph 31 % 0.00 in 0.00 W/m2
02:30 66.4 °F 34.9 °F 29.87 in SE 11.0 mph 12.0 mph 31 % 0.00 in 0.00 W/m2
02:35 66.3 °F 34.8 °F 29.87 in East 5.0 mph 19.0 mph 31 % 0.00 in 0.00 W/m2
02:40 66.2 °F 34.7 °F 29.87 in ESE 7.0 mph 15.0 mph 31 % 0.00 in 0.00 W/m2
02:45 66.2 °F 34.7 °F 29.87 in ESE 2.0 mph 15.0 mph 31 % 0.00 in 0.00 W/m2
02:50 66.1 °F 34.6 °F 29.87 in ESE 11.0 mph 23.0 mph 31 % 0.00 in 0.00 W/m2
02:55 66.2 °F 34.7 °F 29.87 in East 1.0 mph 23.0 mph 31 % 0.00 in 0.00 W/m2
03:00 66.2 °F 34.7 °F 29.87 in SE 8.0 mph 22.0 mph 31 % 0.00 in 0.00 W/m2
03:05 66.2 °F 34.7 °F 29.88 in SE 1.0 mph 14.0 mph 31 % 0.00 in 0.00 W/m2
03:10 66.3 °F 34.8 °F 29.88 in ESE 12.0 mph 17.0 mph 31 % 0.00 in 0.00 W/m2
03:15 66.3 °F 34.8 °F 29.88 in Calm   12.0 mph 31 % 0.00 in 0.00 W/m2
03:21 66.2 °F 34.7 °F 29.88 in SE 2.0 mph 22.0 mph 31 % 0.00 in 0.00 W/m2
03:26 66.2 °F 34.7 °F 29.88 in ESE 2.0 mph 19.0 mph 31 % 0.00 in 0.00 W/m2
03:31 66.2 °F 34.7 °F 29.88 in ESE 5.0 mph 8.0 mph 31 % 0.00 in 0.00 W/m2
03:36 66.1 °F 34.6 °F 29.88 in Calm   13.0 mph 31 % 0.00 in 0.00 W/m2
03:41 66.1 °F 34.6 °F 29.88 in Calm   13.0 mph 31 % 0.00 in 0.00 W/m2
03:45 66.0 °F 35.3 °F 29.88 in East 6.0 mph 18.0 mph 32 % 0.00 in 0.00 W/m2
03:46 66.0 °F 35.3 °F 29.88 in Calm   11.0 mph 32 % 0.00 in 0.00 W/m2
03:51 65.9 °F 35.2 °F 29.88 in ESE 1.0 mph 11.0 mph 32 % 0.00 in 0.00 W/m2
03:56 65.9 °F 35.2 °F 29.88 in Calm   7.0 mph 32 % 0.00 in 0.00 W/m2
04:01 65.9 °F 34.4 °F 29.88 in Calm   9.0 mph 31 % 0.00 in 0.00 W/m2
04:04 65.9 °F 34.4 °F 29.89 in ESE 7.0 mph 12.0 mph 31 % 0.00 in 0.00 W/m2
04:09 65.9 °F 35.2 °F 29.88 in East 6.0 mph 15.0 mph 32 % 0.00 in 0.00 W/m2
04:14 65.9 °F 35.2 °F 29.88 in East 4.0 mph 13.0 mph 32 % 0.00 in 0.00 W/m2
04:19 65.8 °F 35.2 °F 29.88 in Calm   14.0 mph 32 % 0.00 in 0.00 W/m2
04:24 65.8 °F 35.2 °F 29.88 in ESE 7.0 mph 13.0 mph 32 % 0.00 in 0.00 W/m2
04:29 65.7 °F 35.1 °F 29.89 in Calm   8.0 mph 32 % 0.00 in 0.00 W/m2
04:34 65.7 °F 35.1 °F 29.89 in Calm   8.0 mph 32 % 0.00 in 0.00 W/m2
04:39 65.7 °F 35.1 °F 29.89 in Calm   8.0 mph 32 % 0.00 in 0.00 W/m2
04:44 65.5 °F 34.9 °F 29.89 in ESE 8.0 mph 12.0 mph 32 % 0.00 in 0.00 W/m2
04:49 65.4 °F 34.8 °F 29.89 in East 4.0 mph 8.0 mph 32 % 0.00 in 0.00 W/m2
04:54 65.3 °F 35.5 °F 29.89 in ESE 9.0 mph 11.0 mph 33 % 0.00 in 0.00 W/m2
04:59 65.2 °F 34.6 °F 29.89 in Calm   11.0 mph 32 % 0.00 in 0.00 W/m2
05:04 65.1 °F 35.3 °F 29.89 in Calm   12.0 mph 33 % 0.00 in 0.00 W/m2
05:09 65.0 °F 35.2 °F 29.89 in ESE 5.0 mph 9.0 mph 33 % 0.00 in 0.00 W/m2
05:14 64.9 °F 35.1 °F 29.89 in East 1.0 mph 8.0 mph 33 % 0.00 in 0.00 W/m2
05:19 64.8 °F 35.0 °F 29.89 in Calm   11.0 mph 33 % 0.00 in 0.00 W/m2
05:24 64.7 °F 35.0 °F 29.89 in ESE 8.0 mph 9.0 mph 33 % 0.00 in 0.00 W/m2
05:29 64.6 °F 34.9 °F 29.89 in Calm   12.0 mph 33 % 0.00 in 0.00 W/m2
05:34 64.5 °F 34.8 °F 29.89 in ESE 7.0 mph 12.0 mph 33 % 0.00 in 0.00 W/m2
05:39 64.4 °F 34.7 °F 29.89 in Calm   12.0 mph 33 % 0.00 in 0.00 W/m2
05:44 64.3 °F 35.4 °F 29.90 in East 10.0 mph 11.0 mph 34 % 0.00 in 0.00 W/m2
05:49 64.3 °F 35.4 °F 29.90 in East 2.0 mph 11.0 mph 34 % 0.00 in 0.00 W/m2
05:55 64.3 °F 35.4 °F 29.90 in Calm   11.0 mph 34 % 0.00 in 0.00 W/m2
06:00 64.2 °F 35.3 °F 29.90 in Calm   9.0 mph 34 % 0.00 in 0.00 W/m2
06:05 64.1 °F 35.2 °F 29.90 in East 1.0 mph 14.0 mph 34 % 0.00 in 0.00 W/m2
06:10 64.1 °F 35.2 °F 29.90 in ENE 11.0 mph 14.0 mph 34 % 0.00 in 0.00 W/m2
06:15 64.1 °F 35.2 °F 29.90 in ESE 6.0 mph 14.0 mph 34 % 0.00 in 0.00 W/m2
06:20 64.1 °F 35.9 °F 29.90 in Calm   15.0 mph 35 % 0.00 in 0.00 W/m2
06:25 64.0 °F 35.8 °F 29.90 in East 1.0 mph 11.0 mph 35 % 0.00 in 0.00 W/m2
06:30 64.0 °F 35.8 °F 29.90 in Calm   11.0 mph 35 % 0.00 in 0.00 W/m2
06:31 64.0 °F 35.8 °F 29.91 in East 8.0 mph 8.0 mph 35 % 0.00 in 0.00 W/m2
06:36 64.0 °F 35.8 °F 29.91 in East 1.0 mph 2.0 mph 35 % 0.00 in 0.00 W/m2
06:41 63.9 °F 35.7 °F 29.91 in Calm   2.0 mph 35 % 0.00 in 0.00 W/m2
06:46 63.9 °F 35.7 °F 29.91 in Calm     35 % 0.00 in 0.00 W/m2
06:51 63.8 °F 35.7 °F 29.91 in East 6.0 mph 7.0 mph 35 % 0.00 in 0.00 W/m2
06:56 63.6 °F 35.5 °F 29.91 in ESE 6.0 mph 6.0 mph 35 % 0.00 in 5.00 W/m2
07:01 63.6 °F 36.2 °F 29.91 in Calm     36 % 0.00 in 9.00 W/m2
07:06 63.5 °F 36.1 °F 29.91 in ESE 4.0 mph 4.0 mph 36 % 0.00 in 11.00 W/m2
07:11 63.5 °F 36.1 °F 29.92 in ESE 1.0 mph 5.0 mph 36 % 0.00 in 14.00 W/m2
07:16 63.5 °F 35.4 °F 29.92 in East 8.0 mph 8.0 mph 35 % 0.00 in 16.00 W/m2
07:21 63.6 °F 36.2 °F 29.92 in East 4.0 mph 4.0 mph 36 % 0.00 in 21.00 W/m2
07:26 63.6 °F 36.2 °F 29.92 in Calm   4.0 mph 36 % 0.00 in 32.00 W/m2
07:31 63.6 °F 36.2 °F 29.92 in ENE 6.0 mph 13.0 mph 36 % 0.00 in 44.00 W/m2
07:36 63.6 °F 36.2 °F 29.92 in ESE 8.0 mph 10.0 mph 36 % 0.00 in 60.00 W/m2
07:41 63.6 °F 36.2 °F 29.92 in Calm   8.0 mph 36 % 0.00 in 74.00 W/m2
07:46 63.6 °F 36.9 °F 29.92 in ESE 1.0 mph 7.0 mph 37 % 0.00 in 91.00 W/m2
07:51 63.7 °F 37.0 °F 29.92 in ESE 1.0 mph 8.0 mph 37 % 0.00 in 111.00 W/m2
07:56 63.8 °F 37.0 °F 29.92 in Calm   8.0 mph 37 % 0.00 in 130.00 W/m2
08:01 63.9 °F 37.1 °F 29.92 in East 4.0 mph 12.0 mph 37 % 0.00 in 146.00 W/m2
08:06 63.9 °F 37.1 °F 29.92 in ESE 7.0 mph 9.0 mph 37 % 0.00 in 169.00 W/m2
08:07 63.9 °F 37.1 °F 29.92 in Calm   9.0 mph 37 % 0.00 in 171.00 W/m2
08:12 64.0 °F 37.9 °F 29.92 in Calm   12.0 mph 38 % 0.00 in 179.00 W/m2
08:17 64.1 °F 38.0 °F 29.92 in ESE 1.0 mph 9.0 mph 38 % 0.00 in 213.00 W/m2
08:22 64.2 °F 37.4 °F 29.92 in Calm   6.0 mph 37 % 0.00 in 232.00 W/m2
08:24 64.3 °F 37.5 °F 29.92 in Calm   18.0 mph 37 % 0.00 in 237.00 W/m2
08:29 64.5 °F 37.7 °F 29.93 in Calm   13.0 mph 37 % 0.00 in 264.00 W/m2
08:34 64.7 °F 37.8 °F 29.93 in ESE 4.0 mph 8.0 mph 37 % 0.00 in 278.00 W/m2
08:39 64.8 °F 38.6 °F 29.92 in Calm   7.0 mph 38 % 0.00 in 299.00 W/m2
08:44 65.0 °F 38.1 °F 29.93 in Calm   14.0 mph 37 % 0.00 in 315.00 W/m2
08:49 65.2 °F 38.3 °F 29.93 in East 4.0 mph 11.0 mph 37 % 0.00 in 334.00 W/m2
08:54 65.4 °F 39.2 °F 29.93 in East 5.0 mph 8.0 mph 38 % 0.00 in 348.00 W/m2
08:59 65.6 °F 39.3 °F 29.93 in Calm   11.0 mph 38 % 0.00 in 364.00 W/m2
09:04 65.8 °F 39.5 °F 29.93 in ESE 2.0 mph 11.0 mph 38 % 0.00 in 381.00 W/m2
09:09 65.9 °F 38.9 °F 29.93 in ESE 8.0 mph 8.0 mph 37 % 0.00 in 394.00 W/m2
09:14 66.2 °F 39.9 °F 29.93 in Calm   12.0 mph 38 % 0.00 in 411.00 W/m2
09:19 66.5 °F 38.8 °F 29.94 in Calm   8.0 mph 36 % 0.00 in 425.00 W/m2
09:20 66.6 °F 39.5 °F 29.94 in ESE 7.0 mph 9.0 mph 37 % 0.00 in 429.00 W/m2
09:25 66.9 °F 39.1 °F 29.94 in SE 2.0 mph 9.0 mph 36 % 0.00 in 443.00 W/m2
09:30 67.2 °F 38.7 °F 29.94 in ESE 7.0 mph 14.0 mph 35 % 0.00 in 457.00 W/m2
09:35 67.6 °F 38.3 °F 29.94 in Calm   12.0 mph 34 % 0.00 in 468.00 W/m2
09:40 68.1 °F 39.4 °F 29.94 in Calm   20.0 mph 35 % 0.00 in 483.00 W/m2
09:45 68.5 °F 39.0 °F 29.94 in East 8.0 mph 9.0 mph 34 % 0.00 in 497.00 W/m2
09:50 68.9 °F 38.6 °F 29.94 in East 6.0 mph 11.0 mph 33 % 0.00 in 513.00 W/m2
09:55 69.5 °F 39.2 °F 29.94 in Calm   11.0 mph 33 % 0.00 in 526.00 W/m2
10:00 69.9 °F 39.5 °F 29.94 in ESE 7.0 mph 14.0 mph 33 % 0.00 in 540.00 W/m2
10:05 70.2 °F 39.0 °F 29.94 in SE 7.0 mph 9.0 mph 32 % 0.00 in 552.00 W/m2
10:10 70.6 °F 38.5 °F 29.94 in East 2.0 mph 9.0 mph 31 % 0.00 in 563.00 W/m2
10:15 70.9 °F 38.8 °F 29.94 in ENE 8.0 mph 15.0 mph 31 % 0.00 in 578.00 W/m2
10:20 71.3 °F 39.1 °F 29.94 in SE 6.0 mph 12.0 mph 31 % 0.00 in 591.00 W/m2
10:25 71.5 °F 38.5 °F 29.94 in Calm   11.0 mph 30 % 0.00 in 599.00 W/m2
10:30 71.9 °F 38.8 °F 29.94 in Calm   9.0 mph 30 % 0.00 in 610.00 W/m2
10:35 72.2 °F 38.2 °F 29.94 in ESE 6.0 mph 13.0 mph 29 % 0.00 in 619.00 W/m2
10:36 72.2 °F 38.2 °F 29.94 in SE 9.0 mph 9.0 mph 29 % 0.00 in 622.00 W/m2
10:41 72.5 °F 39.3 °F 29.94 in SE 5.0 mph 5.0 mph 30 % 0.00 in 635.00 W/m2
10:46 72.9 °F 38.8 °F 29.94 in ESE 2.0 mph 5.0 mph 29 % 0.00 in 642.00 W/m2
10:51 73.1 °F 39.0 °F 29.94 in Calm     29 % 0.00 in 652.00 W/m2
10:56 73.4 °F 38.3 °F 29.94 in Calm   6.0 mph 28 % 0.00 in 663.00 W/m2
11:01 73.9 °F 38.8 °F 29.94 in Calm     28 % 0.00 in 671.00 W/m2
11:06 74.1 °F 39.8 °F 29.94 in Calm     29 % 0.00 in 680.00 W/m2
11:11 74.4 °F 39.2 °F 29.94 in Calm   6.0 mph 28 % 0.00 in 689.00 W/m2
11:16 74.7 °F 39.5 °F 29.94 in SW 3.0 mph 4.0 mph 28 % 0.00 in 698.00 W/m2
11:21 75.0 °F 38.8 °F 29.94 in Calm     27 % 0.00 in 705.00 W/m2
11:26 75.4 °F 40.1 °F 29.94 in Calm     28 % 0.00 in 712.00 W/m2
11:31 75.6 °F 39.3 °F 29.94 in Calm   1.0 mph 27 % 0.00 in 719.00 W/m2
11:36 75.9 °F 39.6 °F 29.94 in Calm   1.0 mph 27 % 0.00 in 722.00 W/m2
11:41 76.2 °F 39.8 °F 29.94 in South 4.0 mph 5.0 mph 27 % 0.00 in 729.00 W/m2
11:46 76.6 °F 39.2 °F 29.94 in SSW 2.0 mph 5.0 mph 26 % 0.00 in 733.00 W/m2
11:51 77.1 °F 38.6 °F 29.94 in Calm     25 % 0.00 in 740.00 W/m2
11:56 77.3 °F 39.8 °F 29.94 in Calm     26 % 0.00 in 742.00 W/m2
12:01 77.5 °F 38.9 °F 29.93 in Calm     25 % 0.00 in 747.00 W/m2
12:06 77.5 °F 38.9 °F 29.93 in West 1.0 mph 8.0 mph 25 % 0.00 in 751.00 W/m2
12:11 77.7 °F 40.1 °F 29.93 in Calm   1.0 mph 26 % 0.00 in 754.00 W/m2
12:17 77.8 °F 40.2 °F 29.93 in WSW 3.0 mph 3.0 mph 26 % 0.00 in 759.00 W/m2
12:22 78.0 °F 40.4 °F 29.93 in WNW 4.0 mph 6.0 mph 26 % 0.00 in 759.00 W/m2
12:27 78.0 °F 39.4 °F 29.93 in Calm     25 % 0.00 in 759.00 W/m2
12:32 78.0 °F 40.4 °F 29.93 in West 2.0 mph 4.0 mph 26 % 0.00 in 763.00 W/m2
12:37 78.1 °F 39.5 °F 29.93 in Calm   4.0 mph 25 % 0.00 in 765.00 W/m2
12:42 78.2 °F 39.5 °F 29.93 in WNW 1.0 mph 3.0 mph 25 % 0.00 in 765.00 W/m2
12:47 78.1 °F 38.4 °F 29.93 in NW 4.0 mph 7.0 mph 24 % 0.00 in 766.00 W/m2
12:52 78.2 °F 39.5 °F 29.93 in Calm   6.0 mph 25 % 0.00 in 766.00 W/m2
12:57 78.3 °F 38.6 °F 29.93 in NW 3.0 mph 3.0 mph 24 % 0.00 in 765.00 W/m2
13:02 78.5 °F 38.7 °F 29.92 in West 2.0 mph 5.0 mph 24 % 0.00 in 765.00 W/m2
13:07 78.6 °F 39.9 °F 29.92 in WSW 6.0 mph 6.0 mph 25 % 0.00 in 763.00 W/m2
13:12 78.9 °F 39.1 °F 29.92 in WNW 3.0 mph 7.0 mph 24 % 0.00 in 761.00 W/m2
13:17 79.2 °F 38.2 °F 29.92 in Calm   5.0 mph 23 % 0.00 in 759.00 W/m2
13:22 79.5 °F 40.6 °F 29.92 in West 3.0 mph 5.0 mph 25 % 0.00 in 756.00 W/m2
13:27 79.6 °F 38.6 °F 29.92 in Calm     23 % 0.00 in 754.00 W/m2
13:32 79.7 °F 38.7 °F 29.92 in NW 1.0 mph 4.0 mph 23 % 0.00 in 752.00 W/m2
13:37 79.6 °F 38.6 °F 29.91 in WSW 7.0 mph 8.0 mph 23 % 0.00 in 745.00 W/m2
13:42 79.7 °F 38.7 °F 29.91 in WNW 2.0 mph 6.0 mph 23 % 0.00 in 744.00 W/m2
13:47 80.0 °F 40.0 °F 29.91 in SW 2.0 mph 5.0 mph 24 % 0.00 in 740.00 W/m2
13:52 80.3 °F 39.2 °F 29.91 in WSW 5.0 mph 11.0 mph 23 % 0.00 in 735.00 W/m2
13:57 80.7 °F 38.4 °F 29.91 in SSW 2.0 mph 5.0 mph 22 % 0.00 in 728.00 W/m2
14:02 81.2 °F 39.9 °F 29.91 in WNW 5.0 mph 8.0 mph 23 % 0.00 in 721.00 W/m2
14:07 81.3 °F 41.1 °F 29.91 in Calm   6.0 mph 24 % 0.00 in 712.00 W/m2
14:12 81.2 °F 39.9 °F 29.91 in West 2.0 mph 5.0 mph 23 % 0.00 in 707.00 W/m2
14:17 80.9 °F 39.7 °F 29.90 in SW 1.0 mph 8.0 mph 23 % 0.00 in 698.00 W/m2
14:22 80.8 °F 40.7 °F 29.91 in Calm   8.0 mph 24 % 0.00 in 693.00 W/m2
14:27 80.5 °F 40.4 °F 29.91 in WNW 6.0 mph 6.0 mph 24 % 0.00 in 684.00 W/m2
14:32 80.3 °F 41.3 °F 29.91 in Calm   7.0 mph 25 % 0.00 in 675.00 W/m2
14:37 80.2 °F 41.2 °F 29.91 in West 4.0 mph 7.0 mph 25 % 0.00 in 668.00 W/m2
14:42 80.2 °F 41.2 °F 29.90 in WNW 4.0 mph 8.0 mph 25 % 0.00 in 659.00 W/m2
14:47 80.2 °F 41.2 °F 29.91 in SW 4.0 mph 11.0 mph 25 % 0.00 in 647.00 W/m2
14:53 80.2 °F 40.2 °F 29.91 in West 2.0 mph 5.0 mph 24 % 0.00 in 640.00 W/m2
14:58 80.2 °F 39.1 °F 29.90 in Calm     23 % 0.00 in 629.00 W/m2
15:03 80.0 °F 40.0 °F 29.90 in Calm   6.0 mph 24 % 0.00 in 621.00 W/m2
15:08 79.9 °F 41.0 °F 29.90 in Calm   3.0 mph 25 % 0.00 in 610.00 W/m2
15:13 79.8 °F 39.8 °F 29.90 in West 8.0 mph 11.0 mph 24 % 0.00 in 592.00 W/m2
15:18 79.8 °F 40.9 °F 29.90 in West 4.0 mph 8.0 mph 25 % 0.00 in 584.00 W/m2
15:23 79.8 °F 40.9 °F 29.90 in WNW 6.0 mph 9.0 mph 25 % 0.00 in 577.00 W/m2
15:28 79.7 °F 40.8 °F 29.90 in West 4.0 mph 5.0 mph 25 % 0.00 in 568.00 W/m2
15:33 79.7 °F 40.8 °F 29.90 in Calm   6.0 mph 25 % 0.00 in 555.00 W/m2
15:38 79.7 °F 39.8 °F 29.90 in Calm   5.0 mph 24 % 0.00 in 538.00 W/m2
15:43 79.7 °F 40.8 °F 29.90 in Calm   1.0 mph 25 % 0.00 in 529.00 W/m2
15:48 79.8 °F 40.9 °F 29.90 in WNW 3.0 mph 6.0 mph 25 % 0.00 in 517.00 W/m2
15:53 79.7 °F 40.8 °F 29.90 in WNW 3.0 mph 7.0 mph 25 % 0.00 in 503.00 W/m2
15:58 79.6 °F 40.7 °F 29.90 in Calm   4.0 mph 25 % 0.00 in 487.00 W/m2
16:03 79.5 °F 39.6 °F 29.89 in NW 2.0 mph 2.0 mph 24 % 0.00 in 478.00 W/m2
16:08 79.4 °F 40.5 °F 29.89 in WSW 6.0 mph 9.0 mph 25 % 0.00 in 462.00 W/m2
16:13 79.4 °F 40.5 °F 29.89 in SSW 5.0 mph 7.0 mph 25 % 0.00 in 450.00 W/m2
16:18 79.4 °F 41.6 °F 29.89 in Calm   2.0 mph 26 % 0.00 in 434.00 W/m2
16:28 79.2 °F 40.4 °F 29.89 in WNW 1.0 mph 6.0 mph 25 % 0.00 in 403.00 W/m2
16:33 79.1 °F 40.3 °F 29.90 in West 4.0 mph 7.0 mph 25 % 0.00 in 385.00 W/m2
16:38 79.0 °F 40.2 °F 29.89 in Calm   5.0 mph 25 % 0.00 in 371.00 W/m2
16:43 78.9 °F 40.1 °F 29.89 in WNW 2.0 mph 4.0 mph 25 % 0.00 in 357.00 W/m2
16:48 78.9 °F 41.1 °F 29.89 in Calm   8.0 mph 26 % 0.00 in 341.00 W/m2
16:53 78.8 °F 40.0 °F 29.89 in Calm   1.0 mph 25 % 0.00 in 323.00 W/m2
16:58 78.7 °F 41.0 °F 29.89 in Calm   4.0 mph 26 % 0.00 in 313.00 W/m2
17:03 78.7 °F 41.0 °F 29.89 in WSW 1.0 mph 5.0 mph 26 % 0.00 in 295.00 W/m2
17:08 78.6 °F 40.9 °F 29.89 in WNW 2.0 mph 5.0 mph 26 % 0.00 in 276.00 W/m2
17:14 78.5 °F 41.8 °F 29.89 in Calm   3.0 mph 27 % 0.00 in 260.00 W/m2
17:19 78.3 °F 41.6 °F 29.89 in Calm   4.0 mph 27 % 0.00 in 241.00 W/m2
17:24 78.0 °F 41.3 °F 29.90 in West 4.0 mph 5.0 mph 27 % 0.00 in 230.00 W/m2
17:29 77.9 °F 41.3 °F 29.90 in WSW 2.0 mph 6.0 mph 27 % 0.00 in 213.00 W/m2
17:34 77.7 °F 42.0 °F 29.90 in Calm   2.0 mph 28 % 0.00 in 192.00 W/m2
17:39 77.5 °F 42.8 °F 29.90 in Calm   7.0 mph 29 % 0.00 in 176.00 W/m2
17:44 77.3 °F 42.6 °F 29.90 in Calm   8.0 mph 29 % 0.00 in 160.00 W/m2
17:49 77.0 °F 42.3 °F 29.90 in Calm   2.0 mph 29 % 0.00 in 141.00 W/m2
17:54 76.8 °F 42.2 °F 29.90 in Calm   1.0 mph 29 % 0.00 in 118.00 W/m2
17:59 76.6 °F 42.9 °F 29.90 in Calm     30 % 0.00 in 102.00 W/m2
18:04 76.4 °F 42.7 °F 29.90 in Calm   1.0 mph 30 % 0.00 in 69.00 W/m2
18:09 76.2 °F 42.5 °F 29.90 in Calm     30 % 0.00 in 28.00 W/m2
18:14 76.0 °F 43.2 °F 29.90 in West 3.0 mph 6.0 mph 31 % 0.00 in 40.00 W/m2
18:19 75.8 °F 43.9 °F 29.90 in Calm   3.0 mph 32 % 0.00 in 39.00 W/m2
18:24 75.6 °F 43.7 °F 29.90 in Calm     32 % 0.00 in 30.00 W/m2
18:29 75.3 °F 44.2 °F 29.91 in Calm   5.0 mph 33 % 0.00 in 21.00 W/m2
18:34 74.9 °F 43.9 °F 29.91 in Calm   1.0 mph 33 % 0.00 in 16.00 W/m2
18:39 74.4 °F 43.5 °F 29.91 in Calm   1.0 mph 33 % 0.00 in 14.00 W/m2
18:44 73.7 °F 43.6 °F 29.91 in Calm   2.0 mph 34 % 0.00 in 9.00 W/m2
18:49 72.8 °F 43.6 °F 29.91 in Calm     35 % 0.00 in 7.00 W/m2
18:54 72.1 °F 43.7 °F 29.91 in Calm   2.0 mph 36 % 0.00 in 5.00 W/m2
18:59 71.5 °F 43.2 °F 29.91 in Calm     36 % 0.00 in 0.00 W/m2
19:04 71.0 °F 43.4 °F 29.91 in Calm     37 % 0.00 in 0.00 W/m2
19:09 70.5 °F 43.0 °F 29.92 in Calm     37 % 0.00 in 0.00 W/m2
19:14 70.2 °F 42.7 °F 29.92 in Calm     37 % 0.00 in 0.00 W/m2
19:19 69.9 °F 43.2 °F 29.92 in Calm     38 % 0.00 in 0.00 W/m2
19:24 69.6 °F 42.9 °F 29.92 in Calm     38 % 0.00 in 0.00 W/m2
19:29 69.3 °F 42.6 °F 29.92 in Calm     38 % 0.00 in 0.00 W/m2
19:34 68.9 °F 43.0 °F 29.93 in Calm     39 % 0.00 in 0.00 W/m2
19:39 68.7 °F 42.8 °F 29.92 in Calm     39 % 0.00 in 0.00 W/m2
19:44 68.5 °F 42.6 °F 29.93 in Calm     39 % 0.00 in 0.00 W/m2
19:49 68.4 °F 42.5 °F 29.93 in Calm     39 % 0.00 in 0.00 W/m2
19:54 68.2 °F 42.3 °F 29.93 in Calm     39 % 0.00 in 0.00 W/m2
19:59 68.0 °F 42.8 °F 29.93 in Calm     40 % 0.00 in 0.00 W/m2
20:04 67.8 °F 42.6 °F 29.93 in Calm     40 % 0.00 in 0.00 W/m2
20:09 67.7 °F 42.5 °F 29.93 in Calm     40 % 0.00 in 0.00 W/m2
20:14 67.6 °F 42.4 °F 29.93 in Calm     40 % 0.00 in 0.00 W/m2
20:19 67.6 °F 42.4 °F 29.93 in Calm     40 % 0.00 in 0.00 W/m2
20:24 67.4 °F 42.3 °F 29.94 in Calm     40 % 0.00 in 0.00 W/m2
20:29 67.3 °F 42.8 °F 29.94 in Calm     41 % 0.00 in 0.00 W/m2
20:34 67.1 °F 42.6 °F 29.94 in Calm     41 % 0.00 in 0.00 W/m2
20:39 67.0 °F 42.5 °F 29.94 in Calm     41 % 0.00 in 0.00 W/m2
20:42 66.9 °F 42.5 °F 29.94 in Calm     41 % 0.00 in 0.00 W/m2
20:47 66.7 °F 42.3 °F 29.94 in Calm     41 % 0.00 in 0.00 W/m2
20:48 66.7 °F 42.3 °F 29.94 in Calm     41 % 0.00 in 0.00 W/m2
20:53 66.7 °F 42.3 °F 29.94 in Calm     41 % 0.00 in 0.00 W/m2
20:58 66.6 °F 42.2 °F 29.94 in Calm     41 % 0.00 in 0.00 W/m2
21:03 66.6 °F 42.2 °F 29.94 in Calm     41 % 0.00 in 0.00 W/m2
21:08 66.4 °F 42.0 °F 29.94 in Calm     41 % 0.00 in 0.00 W/m2
21:13 66.3 °F 42.5 °F 29.94 in Calm     42 % 0.00 in 0.00 W/m2
21:18 66.1 °F 42.4 °F 29.94 in Calm     42 % 0.00 in 0.00 W/m2
21:23 66.0 °F 42.3 °F 29.94 in Calm     42 % 0.00 in 0.00 W/m2
21:24 66.1 °F 42.4 °F 29.95 in Calm     42 % 0.00 in 0.00 W/m2
21:29 66.0 °F 42.3 °F 29.95 in Calm   1.0 mph 42 % 0.00 in 0.00 W/m2
21:34 66.0 °F 42.3 °F 29.95 in East 2.0 mph 6.0 mph 42 % 0.00 in 0.00 W/m2
21:39 65.9 °F 42.2 °F 29.95 in Calm   6.0 mph 42 % 0.00 in 0.00 W/m2
21:44 65.9 °F 42.2 °F 29.94 in East 2.0 mph 4.0 mph 42 % 0.00 in 0.00 W/m2
21:49 65.9 °F 42.2 °F 29.95 in Calm   4.0 mph 42 % 0.00 in 0.00 W/m2
21:54 65.9 °F 42.2 °F 29.95 in Calm   8.0 mph 42 % 0.00 in 0.00 W/m2
21:59 66.0 °F 42.3 °F 29.95 in East 5.0 mph 7.0 mph 42 % 0.00 in 0.00 W/m2
22:04 65.9 °F 42.2 °F 29.95 in ESE 4.0 mph 7.0 mph 42 % 0.00 in 0.00 W/m2
22:09 65.9 °F 42.2 °F 29.94 in Calm   8.0 mph 42 % 0.00 in 0.00 W/m2
22:14 65.9 °F 42.2 °F 29.94 in ESE 4.0 mph 13.0 mph 42 % 0.00 in 0.00 W/m2
22:19 65.9 °F 41.6 °F 29.95 in East 2.0 mph 8.0 mph 41 % 0.00 in 0.00 W/m2
22:24 65.9 °F 41.6 °F 29.95 in ESE 1.0 mph 12.0 mph 41 % 0.00 in 0.00 W/m2
22:29 66.0 °F 41.7 °F 29.95 in ESE 6.0 mph 11.0 mph 41 % 0.00 in 0.00 W/m2
22:34 66.0 °F 41.7 °F 29.95 in ESE 7.0 mph 8.0 mph 41 % 0.00 in 0.00 W/m2
22:39 66.0 °F 41.7 °F 29.95 in Calm   9.0 mph 41 % 0.00 in 0.00 W/m2
22:44 66.1 °F 41.7 °F 29.95 in Calm   11.0 mph 41 % 0.00 in 0.00 W/m2
22:49 66.1 °F 41.7 °F 29.95 in ESE 11.0 mph 11.0 mph 41 % 0.00 in 0.00 W/m2
22:54 66.1 °F 41.7 °F 29.95 in Calm   8.0 mph 41 % 0.00 in 0.00 W/m2
22:59 66.1 °F 41.7 °F 29.95 in East 4.0 mph 7.0 mph 41 % 0.00 in 0.00 W/m2
23:04 66.1 °F 41.1 °F 29.95 in Calm   11.0 mph 40 % 0.00 in 0.00 W/m2
23:09 66.1 °F 41.1 °F 29.95 in Calm   9.0 mph 40 % 0.00 in 0.00 W/m2
23:14 66.1 °F 41.1 °F 29.95 in ESE 7.0 mph 13.0 mph 40 % 0.00 in 0.00 W/m2
23:19 66.1 °F 41.7 °F 29.95 in ESE 6.0 mph 11.0 mph 41 % 0.00 in 0.00 W/m2
23:24 66.1 °F 41.7 °F 29.95 in ESE 4.0 mph 14.0 mph 41 % 0.00 in 0.00 W/m2
23:29 66.1 °F 41.7 °F 29.95 in East 2.0 mph 12.0 mph 41 % 0.00 in 0.00 W/m2
23:34 66.0 °F 41.7 °F 29.95 in ESE 5.0 mph 9.0 mph 41 % 0.00 in 0.00 W/m2
23:39 66.0 °F 41.7 °F 29.95 in ESE 11.0 mph 12.0 mph 41 % 0.00 in 0.00 W/m2
23:44 65.9 °F 41.6 °F 29.95 in East 3.0 mph 15.0 mph 41 % 0.00 in 0.00 W/m2
23:49 65.9 °F 41.6 °F 29.95 in East 6.0 mph 15.0 mph 41 % 0.00 in 0.00 W/m2
23:54 65.9 °F 41.6 °F 29.96 in East 9.0 mph 16.0 mph 41 % 0.00 in 0.00 W/m2
23:59 65.9 °F 41.6 °F 29.95 in East 7.0 mph 15.0 mph 41 % 0.00 in 0.00 W/m2
Juneau County Weather
Compliments of Weather Underground - 4.5 mb
 WU-history PHP script courtesy of   Juneau County Weather.
powered by Cumulus v1.9.3 (1059)
Ambient Weather VWS v14.00
Top Contact Website Map Copyright © 2007 - 2018 Foresthillweather.com Never base important decisions on this or any weather information obtained from the Internet